2016-02-07 00:03:05 r, 16.72m,0000000018Hz,0000025425c,0000000.055s, 018.0C,00002195
2016-02-07 00:13:04 r, 17.16m,0000000012Hz,0000038300c,0000000.083s, 018.0C,00002195
2016-02-07 00:23:04 r, 17.49m,0000000009Hz,0000051797c,0000000.112s, 017.7C,00002195
2016-02-07 00:33:07 r, 17.58m,0000000008Hz,0000055898c,0000000.121s, 017.7C,00002195
2016-02-07 00:43:05 r, 17.42m,0000000010Hz,0000048288c,0000000.105s, 017.4C,00002195
2016-02-07 00:53:04 r, 17.32m,0000000011Hz,0000044223c,0000000.096s, 017.4C,00002195
2016-02-07 01:03:05 r, 16.74m,0000000018Hz,0000025766c,0000000.056s, 017.4C,00002195
2016-02-07 01:13:04 r, 16.69m,0000000018Hz,0000024790c,0000000.054s, 017.0C,00002195
2016-02-07 01:23:04 r, 16.04m,0000000033Hz,0000013604c,0000000.030s, 017.0C,00002195
2016-02-07 01:33:04 r, 15.33m,0000000064Hz,0000007100c,0000000.015s, 016.4C,00002195
2016-02-07 01:43:07 r, 14.72m,0000000115Hz,0000004001c,0000000.009s, 016.4C,00002195
2016-02-07 01:53:04 r, 14.90m,0000000095Hz,0000004746c,0000000.010s, 016.4C,00002195
2016-02-07 02:03:07 r, 15.03m,0000000085Hz,0000005366c,0000000.012s, 016.1C,00002195
2016-02-07 02:13:05 r, 14.43m,0000000150Hz,0000000000c,0000000.000s, 015.7C,00002195
2016-02-07 02:23:04 r, 14.44m,0000000149Hz,0000000000c,0000000.000s, 015.7C,00002195
2016-02-07 02:33:05 r, 14.44m,0000000149Hz,0000000000c,0000000.000s, 015.4C,00002195
2016-02-07 02:43:04 r, 14.33m,0000000164Hz,0000000000c,0000000.000s, 015.4C,00002195
2016-02-07 02:53:07 r, 14.01m,0000000221Hz,0000000000c,0000000.000s, 015.4C,00002195
2016-02-07 03:03:05 r, 14.65m,0000000113Hz,0000003766c,0000000.008s, 015.4C,00002195
2016-02-07 03:13:04 r, 14.19m,0000000187Hz,0000000000c,0000000.000s, 015.4C,00002195
2016-02-07 03:23:04 r, 14.18m,0000000188Hz,0000000000c,0000000.000s, 015.4C,00002195
2016-02-07 03:33:05 r, 14.29m,0000000171Hz,0000000000c,0000000.000s, 015.4C,00002195
2016-02-07 03:43:04 r, 14.20m,0000000185Hz,0000000000c,0000000.000s, 015.1C,00002195
2016-02-07 03:53:06 r, 13.98m,0000000227Hz,0000000000c,0000000.000s, 015.1C,00002195
2016-02-07 04:03:05 r, 13.96m,0000000232Hz,0000000000c,0000000.000s, 015.1C,00002195
2016-02-07 04:13:07 r, 13.94m,0000000236Hz,0000000000c,0000000.000s, 015.1C,00002195
2016-02-07 04:23:04 r, 13.86m,0000000253Hz,0000000000c,0000000.000s, 015.1C,00002195
2016-02-07 04:33:05 r, 14.03m,0000000218Hz,0000000000c,0000000.000s, 015.1C,00002195
2016-02-07 04:43:06 r, 13.96m,0000000232Hz,0000000000c,0000000.000s, 015.1C,00002195
2016-02-07 04:53:04 r, 14.03m,0000000216Hz,0000000000c,0000000.000s, 015.1C,00002195
2016-02-07 05:03:07 r, 14.15m,0000000194Hz,0000000000c,0000000.000s, 015.1C,00002195
2016-02-07 05:13:05 r, 14.26m,0000000176Hz,0000000000c,0000000.000s, 015.1C,00002195
2016-02-07 05:23:04 r, 14.21m,0000000184Hz,0000000000c,0000000.000s, 015.1C,00002195
2016-02-07 05:33:05 r, 14.36m,0000000160Hz,0000000000c,0000000.000s, 015.1C,00002195
2016-02-07 05:43:07 r, 14.26m,0000000175Hz,0000000000c,0000000.000s, 014.8C,00002195
2016-02-07 05:53:04 r, 14.36m,0000000160Hz,0000000000c,0000000.000s, 014.8C,00002195
2016-02-07 06:03:05 r, 14.16m,0000000193Hz,0000000000c,0000000.000s, 014.8C,00002195
2016-02-07 06:13:05 r, 14.14m,0000000196Hz,0000000000c,0000000.000s, 014.8C,00002195
2016-02-07 06:23:04 r, 14.03m,0000000218Hz,0000000000c,0000000.000s, 014.8C,00002195
2016-02-07 06:33:05 r, 14.13m,0000000198Hz,0000000000c,0000000.000s, 014.5C,00002195
2016-02-07 06:43:04 r, 13.89m,0000000247Hz,0000000000c,0000000.000s, 014.8C,00002195
2016-02-07 06:53:04 r, 14.09m,0000000205Hz,0000000000c,0000000.000s, 014.5C,00002195
2016-02-07 07:03:07 r, 13.77m,0000000277Hz,0000000000c,0000000.000s, 014.5C,00002195
2016-02-07 07:13:05 r, 13.40m,0000000388Hz,0000000000c,0000000.000s, 014.5C,00002195
2016-02-07 07:23:04 r, 12.04m,0000001356Hz,0000000000c,0000000.000s, 014.5C,00002195
2016-02-07 07:33:05 r, 10.10m,0000008066Hz,0000000000c,0000000.000s, 014.5C,00002195
2016-02-07 07:43:05 r, 08.50m,0000035345Hz,0000000000c,0000000.000s, 014.1C,00002195
2016-02-07 07:53:04 r, 07.39m,0000097991Hz,0000000000c,0000000.000s, 014.1C,00002195
2016-02-07 08:03:05 r, 06.49m,0000225345Hz,0000000000c,0000000.000s, 014.1C,00002195
2016-02-07 08:13:05 r, 05.90m,0000388949Hz,0000000000c,0000000.000s, 014.1C,00002195
2016-02-07 08:23:05 r, 00.00m,0000562553Hz,0000000000c,0000000.000s, 014.1C,00002195
2016-02-07 08:33:06 r, 00.00m,0000562561Hz,0000000000c,0000000.000s, 014.1C,00002195
2016-02-07 08:43:04 r, 00.00m,0000562502Hz,0000000000c,0000000.000s, 014.1C,00002195
2016-02-07 08:53:04 r, 00.00m,0000562458Hz,0000000000c,0000000.000s, 014.1C,00002195
2016-02-07 09:03:07 r, 00.00m,0000562560Hz,0000000000c,0000000.000s, 014.1C,00002195
2016-02-07 09:13:05 r, 00.00m,0000562584Hz,0000000000c,0000000.000s, 013.8C,00002195
2016-02-07 09:23:04 r, 00.00m,0000562581Hz,0000000000c,0000000.000s, 014.1C,00002195
2016-02-07 09:33:04 r, 00.00m,0000562501Hz,0000000000c,0000000.000s, 013.8C,00002195
2016-02-07 09:43:04 r, 00.00m,0000562564Hz,0000000000c,0000000.000s, 013.5C,00002195
2016-02-07 09:53:04 r, 00.00m,0000562517Hz,0000000000c,0000000.000s, 013.5C,00002195
2016-02-07 10:03:04 r, 00.00m,0000562563Hz,0000000000c,0000000.000s, 013.5C,00002195
2016-02-07 10:13:04 r, 00.00m,0000562583Hz,0000000000c,0000000.000s, 013.8C,00002195
2016-02-07 10:23:04 r, 00.00m,0000562591Hz,0000000000c,0000000.000s, 013.8C,00002195
2016-02-07 10:33:04 r, 00.00m,0000562678Hz,0000000000c,0000000.000s, 013.8C,00002195
2016-02-07 10:43:05 r, 00.00m,0000562672Hz,0000000000c,0000000.000s, 014.1C,00002195
2016-02-07 10:53:04 r, 00.00m,0000562619Hz,0000000000c,0000000.000s, 014.1C,00002195
2016-02-07 11:03:04 r, 00.00m,0000562636Hz,0000000000c,0000000.000s, 013.8C,00002195
2016-02-07 11:13:04 r, 00.00m,0000562647Hz,0000000000c,0000000.000s, 013.5C,00002195
2016-02-07 11:23:04 r, 00.00m,0000562555Hz,0000000000c,0000000.000s, 013.2C,00002195
2016-02-07 11:33:04 r, 00.00m,0000562602Hz,0000000000c,0000000.000s, 013.2C,00002195
2016-02-07 11:43:05 r, 00.00m,0000562467Hz,0000000000c,0000000.000s, 013.2C,00002195
2016-02-07 11:53:04 r, 00.00m,0000562568Hz,0000000000c,0000000.000s, 013.2C,00002195
2016-02-07 12:03:04 r, 00.00m,0000562474Hz,0000000000c,0000000.000s, 012.8C,00002195
2016-02-07 12:13:06 r, 00.00m,0000562445Hz,0000000000c,0000000.000s, 012.8C,00002195
2016-02-07 12:23:04 r, 00.00m,0000562520Hz,0000000000c,0000000.000s, 012.8C,00002195
2016-02-07 12:33:04 r, 00.00m,0000562479Hz,0000000000c,0000000.000s, 012.5C,00002195
2016-02-07 12:43:07 r, 00.00m,0000562524Hz,0000000000c,0000000.000s, 012.8C,00002195
2016-02-07 12:53:04 r, 00.00m,0000562666Hz,0000000000c,0000000.000s, 012.8C,00002195
2016-02-07 13:03:04 r, 00.00m,0000562702Hz,0000000000c,0000000.000s, 012.8C,00002195
2016-02-07 13:13:05 r, 00.00m,0000562736Hz,0000000000c,0000000.000s, 013.5C,00002195
2016-02-07 13:23:04 r, 00.00m,0000562658Hz,0000000000c,0000000.000s, 013.5C,00002195
2016-02-07 13:33:04 r, 00.00m,0000562738Hz,0000000000c,0000000.000s, 013.8C,00002195
2016-02-07 13:43:05 r, 00.00m,0000562705Hz,0000000000c,0000000.000s, 013.8C,00002195
2016-02-07 13:53:04 r, 00.00m,0000562615Hz,0000000000c,0000000.000s, 013.2C,00002195
2016-02-07 14:03:04 r, 00.00m,0000562562Hz,0000000000c,0000000.000s, 012.8C,00002195
2016-02-07 14:13:05 r, 00.00m,0000562526Hz,0000000000c,0000000.000s, 012.8C,00002195
2016-02-07 14:23:04 r, 00.00m,0000562359Hz,0000000000c,0000000.000s, 011.9C,00002195
2016-02-07 14:33:06 r, 00.00m,0000562345Hz,0000000000c,0000000.000s, 011.2C,00002195
2016-02-07 14:43:05 r, 00.00m,0000562149Hz,0000000000c,0000000.000s, 010.6C,00002195
2016-02-07 14:53:04 r, 00.00m,0000562164Hz,0000000000c,0000000.000s, 009.9C,00002195
2016-02-07 15:03:04 r, 00.00m,0000561973Hz,0000000000c,0000000.000s, 009.6C,00002195
2016-02-07 15:13:07 r, 00.00m,0000561945Hz,0000000000c,0000000.000s, 009.3C,00002195
2016-02-07 15:23:04 r, 00.00m,0000561966Hz,0000000000c,0000000.000s, 009.0C,00002195
2016-02-07 15:33:04 r, 00.00m,0000561889Hz,0000000000c,0000000.000s, 008.7C,00002195
2016-02-07 15:43:07 r, 00.00m,0000561748Hz,0000000000c,0000000.000s, 008.3C,00002195
2016-02-07 15:53:04 r, 00.00m,0000561689Hz,0000000000c,0000000.000s, 008.0C,00002195
2016-02-07 16:03:04 r, 00.00m,0000561652Hz,0000000000c,0000000.000s, 008.0C,00002195
2016-02-07 16:13:05 r, 00.00m,0000561727Hz,0000000000c,0000000.000s, 007.7C,00002195
2016-02-07 16:23:04 r, 00.00m,0000561678Hz,0000000000c,0000000.000s, 007.7C,00002195
2016-02-07 16:33:04 r, 00.00m,0000483487Hz,0000000000c,0000000.000s, 007.7C,00002195
2016-02-07 16:43:06 r, 05.98m,0000362382Hz,0000000000c,0000000.000s, 007.4C,00002195
2016-02-07 16:53:04 r, 06.04m,0000340161Hz,0000000000c,0000000.000s, 007.0C,00002195
2016-02-07 17:03:04 r, 06.21m,0000293468Hz,0000000000c,0000000.000s, 007.0C,00002195
2016-02-07 17:13:04 r, 06.68m,0000189401Hz,0000000000c,0000000.000s, 006.7C,00002195
2016-02-07 17:23:05 r, 07.19m,0000118139Hz,0000000000c,0000000.000s, 006.7C,00002195
2016-02-07 17:33:04 r, 07.92m,0000060354Hz,0000000000c,0000000.000s, 006.7C,00002195
2016-02-07 17:43:07 r, 09.13m,0000019841Hz,0000000000c,0000000.000s, 006.7C,00002195
2016-02-07 17:53:05 r, 10.58m,0000005217Hz,0000000000c,0000000.000s, 006.7C,00002195
2016-02-07 18:03:04 r, 12.29m,0000001086Hz,0000000000c,0000000.000s, 006.7C,00002195
2016-02-07 18:13:06 r, 13.34m,0000000413Hz,0000000000c,0000000.000s, 006.4C,00002195
2016-02-07 18:23:04 r, 13.64m,0000000310Hz,0000000000c,0000000.000s, 006.4C,00002195
2016-02-07 18:33:04 r, 13.58m,0000000331Hz,0000000000c,0000000.000s, 006.7C,00002195
2016-02-07 18:43:04 r, 13.87m,0000000252Hz,0000000000c,0000000.000s, 006.4C,00002195
2016-02-07 18:53:07 r, 13.92m,0000000241Hz,0000000000c,0000000.000s, 006.4C,00002195
2016-02-07 19:03:04 r, 14.12m,0000000199Hz,0000000000c,0000000.000s, 006.7C,00002195
2016-02-07 19:13:05 r, 14.33m,0000000165Hz,0000000000c,0000000.000s, 006.4C,00002195
2016-02-07 19:23:05 r, 14.60m,0000000127Hz,0000003612c,0000000.008s, 006.4C,00002195
2016-02-07 19:33:04 r, 14.72m,0000000115Hz,0000004016c,0000000.009s, 006.4C,00002195
2016-02-07 19:43:07 r, 14.58m,0000000131Hz,0000000000c,0000000.000s, 006.4C,00002195
2016-02-07 19:53:04 r, 14.67m,0000000120Hz,0000003845c,0000000.008s, 006.4C,00002195
2016-02-07 20:03:07 r, 14.23m,0000000181Hz,0000000000c,0000000.000s, 006.1C,00002195
2016-02-07 20:13:05 r, 14.08m,0000000208Hz,0000000000c,0000000.000s, 006.1C,00002195
2016-02-07 20:23:04 r, 13.83m,0000000261Hz,0000000000c,0000000.000s, 006.1C,00002195
2016-02-07 20:33:04 r, 13.72m,0000000290Hz,0000000000c,0000000.000s, 006.4C,00002195
2016-02-07 20:43:04 r, 13.74m,0000000285Hz,0000000000c,0000000.000s, 006.4C,00002195
2016-02-07 20:53:07 r, 13.81m,0000000266Hz,0000000000c,0000000.000s, 006.4C,00002195
2016-02-07 21:03:04 r, 13.84m,0000000258Hz,0000000000c,0000000.000s, 006.4C,00002195
2016-02-07 21:13:06 r, 13.74m,0000000285Hz,0000000000c,0000000.000s, 006.4C,00002195
2016-02-07 21:23:05 r, 13.71m,0000000293Hz,0000000000c,0000000.000s, 006.4C,00002195
2016-02-07 21:33:04 r, 13.72m,0000000290Hz,0000000000c,0000000.000s, 006.4C,00002195
2016-02-07 21:43:07 r, 13.79m,0000000272Hz,0000000000c,0000000.000s, 006.4C,00002195
2016-02-07 21:53:05 r, 13.98m,0000000228Hz,0000000000c,0000000.000s, 006.4C,00002195
2016-02-07 22:03:04 r, 14.10m,0000000203Hz,0000000000c,0000000.000s, 006.4C,00002195
2016-02-07 22:13:04 r, 14.23m,0000000180Hz,0000000000c,0000000.000s, 006.7C,00002195
2016-02-07 22:23:05 r, 14.39m,0000000156Hz,0000000000c,0000000.000s, 006.7C,00002195
2016-02-07 22:33:04 r, 14.36m,0000000160Hz,0000000000c,0000000.000s, 006.7C,00002195
2016-02-07 22:43:06 r, 14.31m,0000000168Hz,0000000000c,0000000.000s, 006.7C,00002195
2016-02-07 22:53:04 r, 14.28m,0000000173Hz,0000000000c,0000000.000s, 006.7C,00002195
2016-02-07 23:03:04 r, 14.15m,0000000194Hz,0000000000c,0000000.000s, 006.4C,00002195
2016-02-07 23:13:05 r, 14.28m,0000000172Hz,0000000000c,0000000.000s, 006.4C,00002195
2016-02-07 23:23:07 r, 14.22m,0000000182Hz,0000000000c,0000000.000s, 006.4C,00002195
2016-02-07 23:33:04 r, 14.12m,0000000199Hz,0000000000c,0000000.000s, 006.4C,00002195
2016-02-07 23:43:05 r, 14.12m,0000000199Hz,0000000000c,0000000.000s, 006.4C,00002195
2016-02-07 23:53:04 r, 14.23m,0000000181Hz,0000000000c,0000000.000s, 006.1C,00002195
